| time (UTC) | temp C | wind direction | speed KPH | gust KPH | rain 1hr cm | rain 24hr cm | rain mn cm | humidity % | barometer mb |
| 20260509222712 | 32 | 0 | 1.6 | 8.0 | 0.00 | 0.15 | 0.15 | 41 | 1006.6 |
| 20260509222206 | 32 | 0 | 1.6 | 8.0 | 0.00 | 0.15 | 0.15 | 43 | 1006.5 |
| 20260509221700 | 32 | 0 | 0.0 | 3.2 | 0.00 | 0.15 | 0.15 | 43 | 1006.5 |
| 20260509221414 | 32 | 0 | 0.0 | 6.4 | 0.00 | 0.15 | 0.15 | 40 | 1006.6 |
| 20260509220648 | 32 | 0 | 0.0 | 6.4 | 0.00 | 0.15 | 0.15 | 40 | 1006.6 |
| 20260509220142 | 32 | 0 | 1.6 | 8.0 | 0.00 | 0.15 | 0.15 | 39 | 1006.6 |
| 20260509215636 | 33 | 0 | 1.6 | 8.0 | 0.00 | 0.15 | 0.15 | 38 | 1006.6 |
| 20260509215619 | 33 | 0 | 3.2 | 8.0 | 0.00 | 0.15 | 0.15 | 42 | 1006.7 |
| 20260509214626 | 33 | 0 | 1.6 | 8.0 | 0.00 | 0.15 | 0.15 | 41 | 1006.7 |
| 20260509214329 | 33 | 0 | 0.0 | 4.8 | 0.00 | 0.15 | 0.15 | 40 | 1006.9 |
| 20260509214217 | 33 | 0 | 1.6 | 6.4 | 0.00 | 0.15 | 0.15 | 40 | 1006.7 |
| 20260509213722 | 33 | 0 | 1.6 | 6.4 | 0.00 | 0.15 | 0.15 | 41 | 1006.8 |
| 20260509212626 | 33 | 0 | 0.0 | 3.2 | 0.00 | 0.15 | 0.15 | 41 | 1006.9 |
| 20260509212126 | 33 | 0 | 0.0 | 3.2 | 0.00 | 0.15 | 0.15 | 42 | 1006.9 |
| 20260509211627 | 32 | 0 | 0.0 | 3.2 | 0.00 | 0.15 | 0.15 | 41 | 1007.0 |
| 20260509211125 | 32 | 0 | 0.0 | 8.0 | 0.00 | 0.15 | 0.15 | 42 | 1007.1 |
| 20260509210627 | 32 | 0 | 1.6 | 8.0 | 0.00 | 0.15 | 0.15 | 42 | 1007.3 |
| 20260509210126 | 32 | 0 | 1.6 | 6.4 | 0.00 | 0.15 | 0.15 | 42 | 1007.3 |
| 20260509205626 | 32 | 0 | 1.6 | 6.4 | 0.00 | 0.15 | 0.15 | 43 | 1007.4 |
| 20260509205123 | 32 | 0 | 1.6 | 6.4 | 0.00 | 0.15 | 0.15 | 42 | 1007.4 |
| 20260509204621 | 32 | 0 | 0.0 | 4.8 | 0.00 | 0.15 | 0.15 | 44 | 1007.4 |
| 20260509204121 | 32 | 0 | 1.6 | 8.0 | 0.00 | 0.15 | 0.15 | 44 | 1007.6 |
| 20260509203621 | 31 | 0 | 1.6 | 8.0 | 0.00 | 0.15 | 0.15 | 46 | 1007.7 |
| 20260509203120 | 31 | 0 | 1.6 | 8.0 | 0.00 | 0.15 | 0.15 | 43 | 1007.8 |
| 20260509202620 | 31 | 0 | 0.0 | 4.8 | 0.00 | 0.15 | 0.15 | 43 | 1007.9 |
| 20260509202120 | 31 | 0 | 0.0 | 4.8 | 0.00 | 0.15 | 0.15 | 44 | 1007.9 |
| 20260509201613 | 31 | 0 | 0.0 | 3.2 | 0.00 | 0.15 | 0.15 | 45 | 1008.0 |
| 20260509201332 | 31 | 0 | 1.6 | 8.0 | 0.00 | 0.15 | 0.15 | 45 | 1008.0 |
| 20260509200602 | 31 | 0 | 1.6 | 8.0 | 0.00 | 0.15 | 0.15 | 45 | 1008.1 |
| 20260509200057 | 31 | 0 | 0.0 | 3.2 | 0.00 | 0.15 | 0.15 | 45 | 1008.1 |
| 20260509195550 | 31 | 0 | 0.0 | 1.6 | 0.00 | 0.15 | 0.15 | 45 | 1008.2 |
| 20260509195043 | 31 | 0 | 0.0 | 1.6 | 0.00 | 0.15 | 0.15 | 45 | 1008.3 |
| 20260509194538 | 31 | 0 | 0.0 | 6.4 | 0.00 | 0.15 | 0.15 | 48 | 1008.3 |
| 20260509194250 | 31 | 0 | 1.6 | 6.4 | 0.00 | 0.15 | 0.15 | 46 | 1008.4 |
| 20260509193526 | 31 | 0 | 0.0 | 6.4 | 0.00 | 0.15 | 0.15 | 47 | 1008.4 |
| 20260509193020 | 31 | 0 | 0.0 | 6.4 | 0.00 | 0.15 | 0.15 | 46 | 1008.4 |
| 20260509192513 | 30 | 0 | 0.0 | 4.8 | 0.00 | 0.15 | 0.15 | 47 | 1008.5 |
| 20260509192008 | 31 | 0 | 0.0 | 4.8 | 0.00 | 0.15 | 0.15 | 46 | 1008.5 |
| 20260509191502 | 31 | 0 | 0.0 | 6.4 | 0.00 | 0.15 | 0.15 | 46 | 1008.6 |
| 20260509191226 | 31 | 0 | 1.6 | 8.0 | 0.00 | 0.15 | 0.15 | 47 | 1008.6 |
| 20260509190450 | 31 | 0 | 1.6 | 8.0 | 0.00 | 0.15 | 0.15 | 50 | 1008.7 |
| 20260509185944 | 31 | 0 | 0.0 | 4.8 | 0.00 | 0.15 | 0.15 | 47 | 1008.8 |
| 20260509185438 | 31 | 0 | 0.0 | 4.8 | 0.00 | 0.15 | 0.15 | 50 | 1008.8 |
| 20260509184932 | 30 | 0 | 0.0 | 6.4 | 0.00 | 0.15 | 0.15 | 48 | 1008.8 |
| 20260509184645 | 30 | 0 | 0.0 | 4.8 | 0.00 | 0.15 | 0.15 | 50 | 1008.9 |
| 20260509183919 | 30 | 0 | 0.0 | 4.8 | 0.00 | 0.15 | 0.15 | 51 | 1008.8 |
| 20260509183414 | 30 | 0 | 0.0 | 3.2 | 0.00 | 0.15 | 0.15 | 51 | 1008.9 |
| 20260509182908 | 30 | 0 | 0.0 | 4.8 | 0.00 | 0.15 | 0.15 | 51 | 1008.9 |
| 20260509182402 | 30 | 0 | 0.0 | 4.8 | 0.00 | 0.15 | 0.15 | 50 | 1009.1 |
| 20260509181856 | 30 | 0 | 0.0 | 3.2 | 0.00 | 0.15 | 0.15 | 50 | 1009.2 |
| 20260509181350 | 30 | 0 | 0.0 | 3.2 | 0.00 | 0.15 | 0.15 | 51 | 1009.2 |
| 20260509180844 | 30 | 0 | 0.0 | 4.8 | 0.00 | 0.15 | 0.15 | 51 | 1009.3 |
| 20260509180338 | 30 | 0 | 0.0 | 4.8 | 0.00 | 0.15 | 0.15 | 52 | 1009.4 |
| 20260509180057 | 29 | 0 | 0.0 | 1.6 | 0.00 | 0.15 | 0.15 | 52 | 1009.4 |
| 20260509175326 | 29 | 0 | 0.0 | 4.8 | 0.00 | 0.15 | 0.15 | 53 | 1009.5 |
| 20260509174820 | 29 | 0 | 0.0 | 4.8 | 0.00 | 0.15 | 0.15 | 53 | 1009.5 |
| 20260509174313 | 29 | 0 | 0.0 | 1.6 | 0.00 | 0.15 | 0.15 | 54 | 1009.6 |
| 20260509173808 | 29 | 0 | 0.0 | 1.6 | 0.00 | 0.15 | 0.15 | 52 | 1009.6 |
| 20260509173302 | 29 | 0 | 0.0 | 1.6 | 0.00 | 0.15 | 0.15 | 53 | 1009.7 |
| 20260509172755 | 28 | 0 | 0.0 | 4.8 | 0.00 | 0.15 | 0.15 | 54 | 1009.8 |
| 20260509172516 | 28 | 0 | 0.0 | 4.8 | 0.00 | 0.15 | 0.15 | 55 | 1009.8 |
| 20260509171757 | 28 | 0 | 0.0 | 4.8 | 0.00 | 0.15 | 0.15 | 54 | 1009.8 |
| 20260509171255 | 28 | 0 | 0.0 | 4.8 | 0.00 | 0.15 | 0.15 | 55 | 1009.8 |
| 20260509170754 | 28 | 0 | 0.0 | 3.2 | 0.00 | 0.15 | 0.15 | 56 | 1009.8 |
| 20260509170256 | 28 | 0 | 0.0 | 3.2 | 0.00 | 0.15 | 0.15 | 57 | 1009.9 |
| 20260509165755 | 28 | 0 | 0.0 | 3.2 | 0.00 | 0.15 | 0.15 | 56 | 1009.9 |
| 20260509165253 | 27 | 0 | 0.0 | 3.2 | 0.00 | 0.15 | 0.15 | 58 | 1010.0 |
| 20260509164750 | 27 | 0 | 0.0 | 3.2 | 0.00 | 0.15 | 0.15 | 58 | 1010.0 |
| 20260509164303 | 27 | 0 | 0.0 | 4.8 | 0.00 | 0.15 | 0.15 | 58 | 1010.0 |
| 20260509163752 | 27 | 0 | 0.0 | 4.8 | 0.00 | 0.15 | 0.15 | 59 | 1010.1 |
| 20260509163252 | 27 | 0 | 0.0 | 1.6 | 0.00 | 0.15 | 0.15 | 60 | 1010.1 |
| 20260509162752 | 27 | 0 | 0.0 | 1.6 | 0.00 | 0.15 | 0.15 | 60 | 1010.1 |
| 20260509162252 | 27 | 0 | 0.0 | 1.6 | 0.00 | 0.15 | 0.15 | 61 | 1010.1 |
| 20260509161752 | 27 | 0 | 0.0 | 1.6 | 0.00 | 0.15 | 0.15 | 61 | 1010.1 |
| 20260509161258 | 26 | 0 | 0.0 | 1.6 | 0.00 | 0.15 | 0.15 | 61 | 1010.1 |
| 20260509160748 | 26 | 0 | 0.0 | 4.8 | 0.00 | 0.15 | 0.15 | 62 | 1010.0 |
| 20260509160508 | 27 | 0 | 0.0 | 4.8 | 0.00 | 0.15 | 0.15 | 60 | 1010.1 |
| 20260509160007 | 26 | 0 | 0.0 | 1.6 | 0.00 | 0.15 | 0.15 | 60 | 1010.1 |
| 20260509155512 | 26 | 0 | 0.0 | 1.6 | 0.00 | 0.15 | 0.15 | 62 | 1010.1 |
| 20260509154749 | 26 | 0 | 0.0 | 3.2 | 0.00 | 0.15 | 0.15 | 64 | 1010.1 |
| 20260509154249 | 26 | 0 | 0.0 | 3.2 | 0.00 | 0.15 | 0.15 | 64 | 1010.1 |
| 20260509153748 | 26 | 0 | 0.0 | 1.6 | 0.00 | 0.15 | 0.15 | 65 | 1010.1 |
| 20260509153250 | 26 | 0 | 0.0 | 1.6 | 0.00 | 0.15 | 0.15 | 65 | 1010.1 |
| 20260509152750 | 25 | 0 | 0.0 | 1.6 | 0.00 | 0.15 | 0.15 | 66 | 1010.1 |
| 20260509152249 | 25 | 0 | 0.0 | 3.2 | 0.00 | 0.15 | 0.15 | 69 | 1010.3 |
| 20260509152007 | 25 | 0 | 0.0 | 3.2 | 0.00 | 0.15 | 0.15 | 69 | 1010.1 |
| 20260509151250 | 25 | 0 | 0.0 | 4.8 | 0.00 | 0.15 | 0.15 | 71 | 1010.3 |
| 20260509150749 | 24 | 0 | 0.0 | 4.8 | 0.00 | 0.15 | 0.15 | 71 | 1010.3 |
| 20260509150249 | 24 | 0 | 0.0 | 3.2 | 0.00 | 0.15 | 0.15 | 73 | 1010.3 |
| 20260509145748 | 24 | 0 | 0.0 | 3.2 | 0.00 | 0.15 | 0.15 | 73 | 1010.4 |
| 20260509145250 | 23 | 0 | 0.0 | 3.2 | 0.00 | 0.15 | 0.15 | 74 | 1010.3 |
| 20260509144748 | 23 | 0 | 0.0 | 4.8 | 0.00 | 0.15 | 0.15 | 76 | 1010.3 |
| 20260509144249 | 23 | 0 | 0.0 | 4.8 | 0.00 | 0.15 | 0.15 | 78 | 1010.4 |
| 20260509143749 | 23 | 0 | 0.0 | 3.2 | 0.00 | 0.15 | 0.15 | 78 | 1010.4 |
| 20260509143246 | 22 | 0 | 0.0 | 1.6 | 0.00 | 0.15 | 0.15 | 78 | 1010.4 |
| 20260509142746 | 22 | 0 | 0.0 | 3.2 | 0.00 | 0.15 | 0.15 | 79 | 1010.4 |
| 20260509142246 | 22 | 0 | 0.0 | 3.2 | 0.00 | 0.15 | 0.15 | 80 | 1010.4 |
| 20260509141744 | 22 | 0 | 0.0 | 3.2 | 0.00 | 0.15 | 0.15 | 82 | 1010.4 |
| 20260509141241 | 22 | 0 | 0.0 | 3.2 | 0.00 | 0.15 | 0.15 | 82 | 1010.4 |
| 20260509140738 | 22 | 0 | 0.0 | 3.2 | 0.00 | 0.15 | 0.15 | 82 | 1010.3 |
| 20260509140237 | 21 | 0 | 0.0 | 3.2 | 0.00 | 0.15 | 0.15 | 83 | 1010.1 |
| 20260509135736 | 21 | 0 | 0.0 | 3.2 | 0.00 | 0.15 | 0.15 | 86 | 1010.3 |
| 20260509135457 | 21 | 0 | 0.0 | 8.0 | 0.00 | 0.15 | 0.15 | 87 | 1010.1 |
| 20260509134955 | 21 | 0 | 0.0 | 8.0 | 0.00 | 0.15 | 0.15 | 89 | 1010.0 |
| 20260509134223 | 21 | 0 | 0.0 | 4.8 | 0.00 | 0.15 | 0.15 | 91 | 1010.0 |
| 20260509133717 | 21 | 0 | 0.0 | 3.2 | 0.00 | 0.15 | 0.15 | 91 | 1009.9 |
| 20260509133211 | 21 | 0 | 0.0 | 3.2 | 0.00 | 0.15 | 0.15 | 93 | 1009.8 |
| 20260509132705 | 20 | 0 | 0.0 | 3.2 | 0.00 | 0.15 | 0.15 | 94 | 1009.7 |
| 20260509132158 | 20 | 0 | 0.0 | 1.6 | 0.00 | 0.15 | 0.15 | 94 | 1009.7 |
| 20260509131653 | 20 | 0 | 0.0 | 3.2 | 0.00 | 0.15 | 0.15 | 95 | 1009.5 |
| 20260509131643 | 20 | 0 | 0.0 | 3.2 | 0.00 | 0.15 | 0.15 | 95 | 1009.3 |
| 20260509130903 | 19 | 0 | 0.0 | 3.2 | 0.00 | 0.15 | 0.15 | 95 | 1009.1 |
| 20260509130359 | 19 | 0 | 0.0 | 1.6 | 0.00 | 0.15 | 0.15 | 95 | 1009.1 |
| 20260509125628 | 18 | 0 | 0.0 | 1.6 | 0.00 | 0.15 | 0.15 | 95 | 1009.0 |
| 20260509125123 | 18 | 0 | 0.0 | 1.6 | 0.00 | 0.15 | 0.15 | 95 | 1008.8 |
| 20260509124620 | 18 | 0 | 0.0 | 3.2 | 0.00 | 0.15 | 0.15 | 95 | 1008.6 |
| 20260509124344 | 18 | 0 | 0.0 | 3.2 | 0.00 | 0.15 | 0.15 | 95 | 1008.8 |
| 20260509123620 | 18 | 0 | 0.0 | 3.2 | 0.00 | 0.15 | 0.15 | 95 | 1008.6 |
| 20260509123116 | 18 | 0 | 0.0 | 3.2 | 0.00 | 0.15 | 0.15 | 95 | 1008.5 |
| 20260509122616 | 18 | 0 | 0.0 | 3.2 | 0.00 | 0.15 | 0.15 | 95 | 1008.4 |
| 20260509122116 | 18 | 0 | 1.6 | 3.2 | 0.00 | 0.15 | 0.15 | 95 | 1008.4 |
| 20260509121847 | 18 | 0 | 1.6 | 0.0 | 0.00 | 0.15 | 0.15 | 95 | 1008.4 |
| 20260509121114 | 18 | 0.0 | 0.0 | 0.00 | 0.15 | 0.15 | 95 | 1008.4 | |
| 20260509120555 | 18 | 0.0 | 0.0 | 0.00 | 0.15 | 0.15 | 95 | 1008.4 | |
| 20260509120037 | 18 | 0.0 | 0.0 | 0.00 | 0.15 | 0.15 | 95 | 1008.4 | |
| 20260509115531 | 18 | 0.0 | 0.0 | 0.00 | 0.15 | 0.15 | 95 | 1008.5 | |
| 20260509115024 | 18 | 0.0 | 0.0 | 0.00 | 0.15 | 0.15 | 95 | 1008.4 | |
| 20260509114524 | 18 | 0.0 | 0.0 | 0.00 | 0.15 | 0.15 | 95 | 1008.4 | |
| 20260509114245 | 18 | 0.0 | 0.0 | 0.00 | 0.15 | 0.15 | 95 | 1008.3 | |
| 20260509113521 | 18 | 0.0 | 0.0 | 0.00 | 0.15 | 0.15 | 95 | 1008.3 | |
| 20260509113218 | 18 | 0.0 | 0.0 | 0.00 | 0.15 | 0.15 | 95 | 1008.3 | |
| 20260509112450 | 18 | 0.0 | 0.0 | 0.00 | 0.15 | 0.15 | 95 | 1008.3 | |
| 20260509111925 | 18 | 0.0 | 0.0 | 0.00 | 0.15 | 0.15 | 95 | 1008.2 | |
| 20260509111422 | 18 | 0.0 | 0.0 | 0.00 | 0.15 | 0.15 | 95 | 1008.3 | |
| 20260509110921 | 18 | 0.0 | 0.0 | 0.00 | 0.15 | 0.15 | 95 | 1008.1 | |
| 20260509110616 | 19 | 0.0 | 0.0 | 0.00 | 0.15 | 0.15 | 95 | 1008.0 | |
| 20260509105827 | 19 | 0.0 | 0.0 | 0.00 | 0.15 | 0.15 | 95 | 1008.1 | |
| 20260509105322 | 19 | 0.0 | 0.0 | 0.00 | 0.15 | 0.15 | 95 | 1007.9 | |
| 20260509104736 | 19 | 0.0 | 0.0 | 0.00 | 0.15 | 0.15 | 95 | 1007.7 | |
| 20260509104229 | 19 | 0.0 | 0.0 | 0.00 | 0.15 | 0.15 | 95 | 1007.7 | |
| 20260509103723 | 19 | 0.0 | 0.0 | 0.00 | 0.15 | 0.15 | 95 | 1007.7 | |
| 20260509103222 | 19 | 0.0 | 0.0 | 0.00 | 0.15 | 0.15 | 95 | 1007.4 | |
| 20260509102711 | 19 | 0.0 | 0.0 | 0.00 | 0.15 | 0.15 | 95 | 1007.4 | |
| 20260509102153 | 19 | 0.0 | 0.0 | 0.00 | 0.15 | 0.15 | 95 | 1007.4 | |
| 20260509101649 | 19 | 0.0 | 0.0 | 0.00 | 0.15 | 0.15 | 95 | 1007.4 | |
| 20260509101608 | 19 | 0.0 | 0.0 | 0.00 | 0.15 | 0.15 | 95 | 1006.7 | |
| 20260509100625 | 19 | 0.0 | 0.0 | 0.00 | 0.15 | 0.15 | 95 | 1006.7 | |
| 20260509100123 | 18 | 0.0 | 0.0 | 0.00 | 0.15 | 0.15 | 95 | 1006.4 | |
| 20260509095623 | 18 | 0.0 | 0.0 | 0.00 | 0.15 | 0.15 | 95 | 1006.2 | |
| 20260509095337 | 18 | 0.0 | 0.0 | 0.00 | 0.15 | 0.15 | 95 | 1006.0 | |
| 20260509094615 | 18 | 0.0 | 0.0 | 0.00 | 0.15 | 0.15 | 95 | 1006.2 | |
| 20260509094109 | 18 | 0.0 | 0.0 | 0.00 | 0.15 | 0.15 | 95 | 1006.6 | |
| 20260509093545 | 18 | 0.0 | 0.0 | 0.00 | 0.15 | 0.15 | 95 | 1007.0 | |
| 20260509093026 | 19 | 0.0 | 0.0 | 0.00 | 0.15 | 0.15 | 95 | 1007.2 | |
| 20260509092527 | 19 | 0.0 | 0.0 | 0.00 | 0.15 | 0.15 | 95 | 1007.0 | |
| 20260509092019 | 19 | 0.0 | 0.0 | 0.00 | 0.15 | 0.15 | 95 | 1007.0 | |
| 20260509091514 | 19 | 0.0 | 0.0 | 0.00 | 0.15 | 0.15 | 95 | 1007.3 | |
| 20260509091005 | 19 | 0.0 | 0.0 | 0.03 | 0.15 | 0.15 | 95 | 1007.9 | |
| 20260509090459 | 19 | 0.0 | 0.0 | 0.03 | 0.15 | 0.15 | 95 | 1008.0 | |
| 20260509085937 | 19 | 0.0 | 0.0 | 0.03 | 0.15 | 0.15 | 95 | 1008.3 | |
| 20260509085431 | 19 | 0.0 | 0.0 | 0.03 | 0.15 | 0.15 | 95 | 1008.3 | |
| 20260509084925 | 19 | 0.0 | 0.0 | 0.03 | 0.15 | 0.15 | 95 | 1008.0 | |
| 20260509084423 | 19 | 0.0 | 0.0 | 0.05 | 0.15 | 0.15 | 95 | 1008.4 | |
| 20260509083919 | 19 | 0.0 | 0.0 | 0.05 | 0.15 | 0.15 | 95 | 1008.7 | |
| 20260509083421 | 19 | 0.0 | 0.0 | 0.13 | 0.15 | 0.15 | 95 | 1008.6 | |
| 20260509082902 | 19 | 0.0 | 0.0 | 0.15 | 0.15 | 0.15 | 95 | 1008.9 | |
| 20260509082341 | 19 | 0.0 | 0.0 | 0.15 | 0.15 | 0.15 | 94 | 1009.1 | |
| 20260509081826 | 19 | 0.0 | 0.0 | 0.15 | 0.15 | 0.15 | 94 | 1009.4 | |
| 20260509081325 | 19 | 0.0 | 0.0 | 0.15 | 0.15 | 0.15 | 94 | 1009.3 | |
| 20260509080821 | 19 | 0.0 | 0.0 | 0.13 | 0.13 | 0.13 | 94 | 1009.5 | |
| 20260509080321 | 19 | 0.0 | 0.0 | 0.13 | 0.13 | 0.13 | 94 | 1009.7 | |
| 20260509075807 | 19 | 0.0 | 0.0 | 0.13 | 0.13 | 0.13 | 94 | 1009.8 | |
| 20260509075249 | 19 | 0.0 | 0.0 | 0.13 | 0.13 | 0.13 | 94 | 1010.1 | |
| 20260509074747 | 19 | 0.0 | 0.0 | 0.13 | 0.13 | 0.13 | 94 | 1010.5 | |
| 20260509074230 | 19 | 0.0 | 0.0 | 0.10 | 0.10 | 0.10 | 94 | 1010.6 | |
| 20260509073725 | 19 | 0.0 | 0.0 | 0.08 | 0.08 | 0.10 | 94 | 1010.7 | |
| 20260509073218 | 19 | 0.0 | 0.0 | 0.03 | 0.03 | 0.03 | 94 | 1010.9 | |
| 20260509072718 | 19 | 0.0 | 0.0 | 0.00 | 0.00 | 0.00 | 94 | 1011.1 | |
| 20260509072203 | 19 | 0.0 | 0.0 | 0.00 | 0.00 | 0.00 | 94 | 1011.2 | |
| 20260509071645 | 19 | 0.0 | 0.0 | 0.00 | 0.00 | 0.00 | 94 | 1011.4 | |
| 20260509071135 | 19 | 0.0 | 0.0 | 0.00 | 0.00 | 0.00 | 94 | 1011.2 | |
| 20260509070629 | 19 | 0.0 | 0.0 | 0.00 | 0.00 | 0.00 | 94 | 1011.3 | |
| 20260509070347 | 19 | 0.0 | 0.0 | 0.00 | 0.00 | 0.00 | 93 | 1011.1 | |
| 20260509065841 | 19 | 0.0 | 0.0 | 0.00 | 0.00 | 0.00 | 93 | 1010.8 | |
| 20260509065055 | 18 | 0.0 | 0.0 | 0.00 | 0.00 | 0.00 | 93 | 1010.4 | |
| 20260509064551 | 18 | 0.0 | 0.0 | 0.00 | 0.00 | 0.00 | 93 | 1010.6 | |
| 20260509064024 | 18 | 0.0 | 0.0 | 0.00 | 0.00 | 0.00 | 93 | 1010.0 | |
| 20260509063523 | 18 | 0.0 | 0.0 | 0.00 | 0.00 | 0.00 | 93 | 1009.6 | |
| 20260509063023 | 18 | 0.0 | 0.0 | 0.00 | 0.00 | 0.00 | 93 | 1008.9 | |
| 20260509062522 | 18 | 0.0 | 0.0 | 0.00 | 0.00 | 0.00 | 93 | 1008.8 | |
| 20260509062023 | 18 | 0.0 | 0.0 | 0.00 | 0.00 | 0.00 | 92 | 1008.7 | |
| 20260509061508 | 18 | 0.0 | 0.0 | 0.00 | 0.00 | 0.00 | 92 | 1008.9 | |
| 20260509061221 | 18 | 0.0 | 0.0 | 0.00 | 0.00 | 0.00 | 92 | 1009.1 | |
| 20260509060705 | 18 | 0.0 | 0.0 | 0.00 | 0.00 | 0.00 | 92 | 1009.2 | |
| 20260509055928 | 18 | 0.0 | 0.0 | 0.00 | 0.00 | 0.00 | 92 | 1009.4 | |
| 20260509055424 | 18 | 0.0 | 0.0 | 0.00 | 0.00 | 0.00 | 92 | 1009.3 | |
| 20260509054925 | 19 | 0.0 | 0.0 | 0.00 | 0.00 | 0.00 | 92 | 1009.3 | |
| 20260509054425 | 19 | 0.0 | 0.0 | 0.00 | 0.00 | 0.00 | 92 | 1009.3 | |
| 20260509053923 | 19 | 0.0 | 0.0 | 0.00 | 0.00 | 0.00 | 92 | 1009.4 | |
| 20260509053606 | 19 | 0.0 | 0.0 | 0.00 | 0.00 | 0.00 | 92 | 1009.2 | |
| 20260509052842 | 19 | 0.0 | 0.0 | 0.00 | 0.00 | 0.00 | 92 | 1009.0 | |
| 20260509052322 | 19 | 0.0 | 0.0 | 0.00 | 0.00 | 0.00 | 92 | 1008.9 | |
| 20260509051823 | 19 | 0.0 | 0.0 | 0.00 | 0.00 | 0.00 | 92 | 1009.0 | |
| 20260509051535 | 19 | 0.0 | 0.0 | 0.00 | 0.00 | 0.00 | 92 | 1008.8 | |
| 20260509050803 | 19 | 0.0 | 0.0 | 0.00 | 0.00 | 0.00 | 92 | 1008.5 | |
| 20260509050515 | 19 | 0.0 | 0.0 | 0.00 | 0.00 | 0.00 | 92 | 1008.4 | |
| 20260509045732 | 19 | 0.0 | 0.0 | 0.00 | 0.00 | 0.00 | 92 | 1008.6 | |
| 20260509045223 | 19 | 0.0 | 0.0 | 0.00 | 0.00 | 0.00 | 92 | 1008.7 | |
| 20260509044719 | 19 | 0.0 | 0.0 | 0.00 | 0.00 | 0.00 | 91 | 1008.6 | |
| 20260509043911 | 19 | 0.0 | 0.0 | 0.00 | 0.00 | 0.00 | 91 | 1008.6 | |
| 20260509043119 | 20 | 0.0 | 0.0 | 0.00 | 0.00 | 0.00 | 91 | 1008.6 | |
| 20260509042609 | 20 | 0.0 | 0.0 | 0.00 | 0.00 | 0.00 | 91 | 1008.7 | |
| 20260509042057 | 20 | 0.0 | 0.0 | 0.00 | 0.00 | 0.00 | 91 | 1008.7 | |
| 20260509041539 | 20 | 0.0 | 0.0 | 0.00 | 0.00 | 0.00 | 91 | 1008.7 | |
| 20260509041026 | 20 | 0.0 | 0.0 | 0.00 | 0.00 | 0.00 | 91 | 1008.7 | |
| 20260509040523 | 20 | 0.0 | 0.0 | 0.00 | 0.00 | 0.00 | 91 | 1008.8 | |
| 20260509040021 | 20 | 0.0 | 0.0 | 0.00 | 0.00 | 0.00 | 91 | 1008.7 | |
| 20260509035520 | 20 | 0.0 | 0.0 | 0.00 | 0.00 | 0.00 | 91 | 1008.8 | |
| 20260509035021 | 20 | 0.0 | 0.0 | 0.00 | 0.00 | 0.00 | 90 | 1008.8 | |
| 20260509034718 | 20 | 0.0 | 0.0 | 0.00 | 0.00 | 0.00 | 90 | 1008.9 | |
| 20260509034147 | 20 | 0.0 | 0.0 | 0.00 | 0.00 | 0.00 | 90 | 1008.9 | |
| 20260509033421 | 20 | 0.0 | 0.0 | 0.00 | 0.00 | 0.00 | 90 | 1008.8 | |
| 20260509032921 | 20 | 0.0 | 0.0 | 0.00 | 0.00 | 0.00 | 90 | 1008.6 | |
| 20260509032421 | 20 | 0.0 | 0.0 | 0.00 | 0.00 | 0.00 | 90 | 1008.7 | |
| 20260509032145 | 20 | 0.0 | 0.0 | 0.00 | 0.00 | 0.00 | 90 | 1008.7 | |
| 20260509031350 | 20 | 0.0 | 0.0 | 0.00 | 0.00 | 0.00 | 90 | 1008.6 | |
| 20260509030831 | 20 | 0.0 | 0.0 | 0.00 | 0.00 | 0.00 | 89 | 1008.5 | |
| 20260509030547 | 20 | 0.0 | 0.0 | 0.00 | 0.00 | 0.00 | 89 | 1008.4 | |
| 20260509025821 | 20 | 0.0 | 0.0 | 0.00 | 0.00 | 0.00 | 89 | 1008.2 | |
| 20260509025306 | 20 | 0.0 | 0.0 | 0.00 | 0.00 | 0.00 | 88 | 1008.1 | |
| 20260509024759 | 20 | 0.0 | 0.0 | 0.00 | 0.00 | 0.00 | 88 | 1008.0 | |
| 20260509024229 | 20 | 0.0 | 0.0 | 0.00 | 0.00 | 0.00 | 87 | 1008.0 | |
| 20260509023721 | 20 | 0.0 | 0.0 | 0.00 | 0.00 | 0.00 | 87 | 1008.0 | |
| 20260509023159 | 20 | 0.0 | 0.0 | 0.00 | 0.00 | 0.00 | 86 | 1008.1 | |
| 20260509022637 | 20 | 0.0 | 0.0 | 0.00 | 0.00 | 0.00 | 86 | 1008.1 | |
| 20260509022354 | 20 | 0.0 | 0.0 | 0.00 | 0.00 | 0.00 | 86 | 1008.1 | |
| 20260509021626 | 21 | 0.0 | 0.0 | 0.00 | 0.00 | 0.00 | 85 | 1008.0 | |
| 20260509021127 | 21 | 0.0 | 0.0 | 0.00 | 0.00 | 0.00 | 85 | 1008.0 | |
| 20260509020619 | 21 | 0.0 | 0.0 | 0.00 | 0.00 | 0.00 | 85 | 1007.9 | |
| 20260509020110 | 21 | 0.0 | 0.0 | 0.00 | 0.00 | 0.00 | 84 | 1007.9 | |
| 20260509015535 | 21 | 0.0 | 0.0 | 0.00 | 0.00 | 0.00 | 84 | 1007.8 | |
| 20260509015030 | 21 | 0.0 | 0.0 | 0.00 | 0.00 | 0.00 | 84 | 1007.9 | |
| 20260509015007 | 21 | 0.0 | 0.0 | 0.00 | 0.00 | 0.00 | 84 | 1007.8 | |
| 20260509014025 | 21 | 0.0 | 0.0 | 0.00 | 0.00 | 0.00 | 84 | 1007.8 | |
| 20260509013526 | 21 | 0.0 | 0.0 | 0.00 | 0.00 | 0.00 | 84 | 1007.6 | |
| 20260509013023 | 21 | 0.0 | 0.0 | 0.00 | 0.00 | 0.00 | 84 | 1007.4 | |
| 20260509012456 | 22 | 0.0 | 0.0 | 0.00 | 0.00 | 0.00 | 83 | 1007.2 | |
| 20260509011927 | 22 | 0 | 1.6 | 1.6 | 0.00 | 0.00 | 0.00 | 83 | 1007.1 |
| 20260509011424 | 22 | 0 | 1.6 | 6.4 | 0.00 | 0.00 | 0.00 | 83 | 1007.0 |
| 20260509010921 | 22 | 0 | 1.6 | 6.4 | 0.00 | 0.00 | 0.00 | 83 | 1007.0 |
| 20260509010648 | 22 | 0 | 1.6 | 6.4 | 0.00 | 0.00 | 0.00 | 82 | 1007.0 |
| 20260509005921 | 22 | 0 | 1.6 | 6.4 | 0.00 | 0.00 | 0.00 | 81 | 1007.0 |
| 20260509005418 | 22 | 0 | 1.6 | 8.0 | 0.00 | 0.00 | 0.00 | 81 | 1007.0 |
| 20260509004918 | 22 | 0 | 3.2 | 8.0 | 0.00 | 0.00 | 0.00 | 81 | 1006.9 |
| 20260509004640 | 23 | 0 | 4.8 | 12.9 | 0.00 | 0.00 | 0.00 | 80 | 1006.7 |
| 20260509003918 | 23 | 0 | 4.8 | 14.5 | 0.00 | 0.00 | 0.00 | 80 | 1006.6 |
| 20260509003411 | 23 | 0 | 6.4 | 14.5 | 0.00 | 0.00 | 0.00 | 79 | 1006.5 |
| 20260509002904 | 23 | 0 | 6.4 | 14.5 | 0.00 | 0.00 | 0.00 | 79 | 1006.6 |
| 20260509002358 | 23 | 0 | 6.4 | 16.1 | 0.00 | 0.00 | 0.00 | 78 | 1006.6 |
| 20260509002124 | 23 | 0 | 4.8 | 16.1 | 0.00 | 0.00 | 0.00 | 78 | 1006.6 |
| 20260509001346 | 23 | 0 | 4.8 | 12.9 | 0.00 | 0.00 | 0.00 | 78 | 1006.7 |
| 20260509000840 | 23 | 0 | 3.2 | 9.7 | 0.00 | 0.00 | 0.00 | 79 | 1006.8 |
| 20260509000334 | 23 | 0 | 3.2 | 9.7 | 0.00 | 0.00 | 0.00 | 78 | 1006.8 |
| 20260508235828 | 23 | 0 | 3.2 | 9.7 | 0.00 | 0.00 | 0.00 | 77 | 1006.9 |
| 20260508235321 | 23 | 0 | 3.2 | 12.9 | 0.00 | 0.00 | 0.00 | 77 | 1006.8 |
| 20260508235035 | 24 | 0 | 3.2 | 12.9 | 0.00 | 0.00 | 0.00 | 76 | 1006.8 |
| 20260508234310 | 24 | 0 | 4.8 | 12.9 | 0.00 | 0.00 | 0.00 | 77 | 1006.8 |
| 20260508233804 | 24 | 0 | 4.8 | 17.7 | 0.00 | 0.00 | 0.00 | 77 | 1006.8 |
| 20260508233258 | 23 | 0 | 4.8 | 17.7 | 0.00 | 0.00 | 0.00 | 77 | 1006.9 |
| 20260508232751 | 24 | 0 | 4.8 | 14.5 | 0.00 | 0.00 | 0.00 | 76 | 1007.0 |
| 20260508232246 | 24 | 0 | 4.8 | 14.5 | 0.00 | 0.00 | 0.00 | 75 | 1007.0 |
| 20260508231739 | 24 | 0 | 4.8 | 12.9 | 0.00 | 0.00 | 0.00 | 75 | 1006.9 |
| 20260508231234 | 24 | 0 | 4.8 | 12.9 | 0.00 | 0.00 | 0.00 | 75 | 1006.9 |
| 20260508230728 | 24 | 0 | 3.2 | 9.7 | 0.00 | 0.00 | 0.00 | 75 | 1006.9 |
| 20260508230440 | 24 | 0 | 3.2 | 9.7 | 0.00 | 0.00 | 0.00 | 74 | 1006.9 |
| 20260508225716 | 24 | 0 | 4.8 | 12.9 | 0.00 | 0.00 | 0.00 | 73 | 1006.9 |
| 20260508225210 | 25 | 0 | 4.8 | 12.9 | 0.00 | 0.00 | 0.00 | 73 | 1007.0 |
| 20260508224704 | 25 | 0 | 3.2 | 9.7 | 0.00 | 0.00 | 0.00 | 72 | 1007.0 |
| 20260508224158 | 25 | 0 | 3.2 | 8.0 | 0.00 | 0.00 | 0.00 | 72 | 1007.0 |
| 20260508224139 | 25 | 0 | 4.8 | 12.9 | 0.00 | 0.00 | 0.00 | 72 | 1007.0 |
| 20260508223150 | 25 | 0 | 4.8 | 12.9 | 0.00 | 0.00 | 0.00 | 71 | 1007.0 |